CZ-6A DEB, 61477

Orbit data source: Space-Track

CZ-6A DEB, 61477 is space debris in LEO originally from a launch on Tue, 06 Aug 2024 UTC launched from the Taiyaun Space Center, China (TSC). Debris objects in space refer to the collection of defunct objects orbiting the Earth. Examples of debris include non-operational satellites, rocket bodies, and fragments generated from explosions, collisions, or faulty payload assembly.

Loading next visibility...
Identifier
61477, 2024-140AAK
Orbit
LEO
Country
Flag of CNCN / PRC
Related business
Manufacturer
SAST
Mission
Spacecraft
Bus & Motor
Unknown
Mass
Unknown
Launch date (UTC)
2024-08-06 (2 years ago)
Launch vehicle
Unknown
Launch site
Taiyaun Space Center, China (TSC)
Object type
Payload
Rocket body
Debris
Shape & HBR
Unknown shape, 0.1 m
Radar Cross Section
Small (<0.1 m²)

Expand to show TLE details & history
Last TLE update: 15 hours ago

TLE from 15 hours ago
0 CZ-6A DEB
1 61477U 24140AAK 26171.23081368  .00004072  00000-0  74933-3 0  9996
2 61477  89.0340 272.5241 0088667 234.9837 124.3033 14.62906842 95300
Epoch: 2026-06-20T05:32Z
TLE epoch observation values (Epoch: 2026-06-20T05:32:22.301Z)
Latitude
-0.00008°
Longitude
-79.01723°
Altitude
722.591 km
Speed
7.475 km/s
True Right ascension
18h 10m 05s
True Declination
0° 00' 00"
Sunlit
Object was in full shadow at epoch
Visualization orbit readout
Latitude
Unknown
Longitude
Unknown
Altitude
Unknown
Speed
Unknown
Apparent Right ascension
Unknown
Apparent Declination
Unknown
Sunlit
N/A
Visualization observer readout
Local Sidereal Time
07:20:54
Azimuth
Unknown
Elevation
Unknown
Doppler factor
Unknown
Orbital elements
Apogee altitude
743.282 km
Perigee altitude
618.104 km
Semi-major axis
7,058.83 km
Eccentricity
0.00887
Inclination
89.034°
RAAN
272.5241°
Arg. of periapsis
234.9837°
True anomaly
125.13738°
Mean anomaly
124.3033°
Eccentric anomaly
124.72086°
Mean motion
3.65969 °/min
Orbital period
98.37 mins
BSTAR
0.00074933
Loading maneuver chart data...
Computing Atmospheric mass density...
Loading historical data...
Loading historical data...
Loading historical data...
Loading historical data...
Loading historical data...
Loading historical data...
Loading historical data...

Documentation

Showing up to 5 results
|